THORAD AGENA D DEB, 4688

Orbit data source: Space-Track

THORAD AGENA D DEB, 4688 is space debris in SSO originally from a launch on Wed, 08 Apr 1970 UTC launched from the Air Force Western Test Range (AFWTR). Debris objects in space refer to the collection of defunct objects orbiting the Earth. Examples of debris include non-operational satellites, rocket bodies, and fragments generated from explosions, collisions, or faulty payload assembly.

Loading next visibility...
Identifier
4688, 1970-025BM
Orbit
SSO
Country
Flag of USUS
Related business
Manufacturer
Unknown
Mission
Spacecraft
Bus & Motor
Unknown
Mass
Unknown
Launch date (UTC)
1970-04-08 (56 years ago)
Launch vehicle
Unknown
Launch site
Air Force Western Test Range (AFWTR)
Object type
Payload
Rocket body
Debris
Shape & HBR
Unknown shape, 0.1 m
Radar Cross Section
Small (<0.1 m²)

Expand to show TLE details & history
Last TLE update: 10 hours ago

TLE from 10 hours ago
0 THORAD AGENA D DEB
1  4688U 70025BM  25300.02993766  .00000244  00000-0  43047-3 0  9993
2  4688 100.0473  34.7884 0021618 126.1456  50.3311 13.53625589736185
Epoch: 2025-10-27T00:43Z
TLE epoch observation values (Epoch: 2025-10-27T00:43:06.613Z)
Latitude
3.18834°
Longitude
168.93579°
Altitude
1,051.126 km
Speed
7.332 km/s
True Right ascension
14h 21m 24s
True Declination
3° 10' 12"
Sunlit
Object was in daylight at epoch
Visualization orbit readout
Latitude
Unknown
Longitude
Unknown
Altitude
Unknown
Speed
Unknown
Apparent Right ascension
Unknown
Apparent Declination
Unknown
Sunlit
N/A
Visualization observer readout
Local Sidereal Time
06:01:56
Azimuth
Unknown
Elevation
Unknown
Doppler factor
Unknown
Orbital elements
Apogee altitude
1,072.335 km
Perigee altitude
1,040.192 km
Semi-major axis
7,434.401 km
Eccentricity
0.00216
Inclination
100.0473°
RAAN
34.7884°
Arg. of periapsis
126.1456°
True anomaly
50.52211°
Mean anomaly
50.3311°
Eccentric anomaly
50.42657°
Mean motion
3.3859 °/min
Orbital period
106.32 mins
BSTAR
0.00043047
Loading maneuver chart data...
Computing Atmospheric mass density...

Documentation

Showing up to 5 results
|